Date String (YYYY-MM-DD hh:mm:ss) UTC,Instrument flags,Ambient pressure (hPa),Sample flow (lpm),Bypass flow (lpm),Sample temperature (°C),Ambient temperature (°C),ASC tube jacket temperature (°C),LED temperature (°C),Box temperature (°C),Sample RH (%),Span deviation,Mass concentration (μg/m³),Mass concentration (μg/m³),Mass concentration (μg/m³)
DateTimeUTC,F1_M11,P_M11,Q1_M11,Q2_M11,T1_M11,T2_M11,T3_M11,T4_M11,T5_M11,U1_M11,ZSPAN_M11,X0_M11,X2_M11,X1_M11
2021-10-30 23:00:00,,0826.5,5.00,0.00,30.3,29.2,00.0,39.2,32.1,14.2,0000.0,0010.32,0002.53,0001.32
2021-10-30 23:01:00,,0826.5,5.00,0.00,30.3,29.3,00.0,39.2,32.1,14.3,0000.0,0009.87,0002.62,0001.31
2021-10-30 23:02:00,,0826.5,5.00,0.00,30.3,29.4,00.0,39.2,32.2,14.3,0000.0,0009.91,0002.66,0001.30
2021-10-30 23:03:00,,0826.6,5.00,0.00,30.4,29.4,00.0,39.2,32.2,14.3,0000.0,0010.30,0002.72,0001.31
2021-10-30 23:04:00,,0826.6,4.99,0.00,30.4,29.5,00.0,39.3,32.2,14.3,0000.0,0010.91,0002.72,0001.30
2021-10-30 23:05:00,,0826.6,5.00,0.00,30.4,29.5,00.0,39.3,32.3,14.3,0000.0,0011.32,0002.78,0001.29
2021-10-30 23:06:00,,0826.6,5.00,0.00,30.4,29.5,00.0,39.3,32.3,14.3,0000.0,0011.85,0002.75,0001.29
2021-10-30 23:07:00,,0826.7,5.00,0.00,30.5,29.6,00.0,39.3,32.3,14.3,0000.0,0012.70,0002.73,0001.29
2021-10-30 23:08:00,,0826.7,5.01,0.00,30.5,29.6,00.0,39.4,32.3,14.2,0000.0,0014.36,0002.79,0001.30
2021-10-30 23:09:00,,0826.7,5.00,0.00,30.5,29.0,00.0,39.4,32.1,14.3,0000.0,0014.39,0002.80,0001.32
2021-10-30 23:10:00,,0826.7,5.00,0.00,30.3,26.5,00.0,39.3,31.6,14.5,0000.0,0014.11,0002.88,0001.36
2021-10-30 23:11:00,,0826.7,4.99,0.00,30.1,25.3,00.0,39.3,31.3,14.6,0000.0,0014.97,0003.00,0001.44
2021-10-30 23:12:00,,0826.6,5.03,0.00,30.0,25.6,00.0,39.2,31.3,14.8,0000.0,0016.08,0003.09,0001.54
2021-10-30 23:13:00,,0826.7,5.00,0.00,29.9,26.1,00.0,39.1,31.3,15.0,0000.0,0016.79,0003.24,0001.73
2021-10-30 23:14:00,,0826.7,4.99,0.00,29.9,26.7,00.0,39.1,31.4,15.1,0000.0,0017.53,0003.33,0001.89
2021-10-30 23:15:00,,0826.7,5.00,0.00,29.8,27.2,00.0,39.0,31.4,15.1,0000.0,0016.66,0003.44,0002.08
2021-10-30 23:16:00,,0826.7,5.02,0.00,29.8,27.6,00.0,39.0,31.5,15.1,0000.0,0016.44,0003.47,0002.26
2021-10-30 23:17:00,,0826.8,4.99,0.00,29.9,27.9,00.0,39.0,31.6,15.1,0000.0,0015.37,0003.57,0002.41
2021-10-30 23:18:00,,0826.8,5.00,0.00,29.9,28.1,00.0,39.0,31.6,15.1,0000.0,0014.69,0003.68,0002.57
2021-10-30 23:19:00,,0826.9,5.00,0.00,29.9,28.3,00.0,39.0,31.7,15.1,0000.0,0013.32,0003.77,0002.73
2021-10-30 23:20:00,,0827.0,5.00,0.00,29.9,28.5,00.0,39.0,31.7,15.1,0000.0,0013.17,0003.85,0002.89
2021-10-30 23:21:00,,0826.8,5.00,0.00,29.9,28.7,00.0,39.0,31.7,15.1,0000.0,0014.24,0003.92,0003.00
2021-10-30 23:22:00,,0826.9,5.00,0.00,30.0,28.8,00.0,39.0,31.8,15.1,0000.0,0013.63,0003.90,0003.06
2021-10-30 23:23:00,,0826.9,5.01,0.00,30.0,28.9,00.0,39.0,31.8,15.0,0000.0,0012.38,0003.92,0003.04
2021-10-30 23:24:00,,0827.0,5.00,0.00,30.0,29.0,00.0,39.0,31.9,15.0,0000.0,0011.47,0003.86,0002.95
2021-10-30 23:25:00,,0827.3,5.00,0.00,30.1,29.1,00.0,39.0,31.9,15.0,0000.0,0010.68,0003.78,0002.89
2021-10-30 23:26:00,,0827.2,5.01,0.00,30.1,29.1,00.0,39.0,31.9,15.0,0000.0,0010.94,0003.73,0002.83
2021-10-30 23:27:00,,0827.0,5.00,0.00,30.1,29.2,00.0,39.0,32.0,15.0,0000.0,0011.09,0003.71,0002.78
2021-10-30 23:28:00,,0827.1,4.99,0.00,30.2,29.2,00.0,39.0,32.0,14.9,0000.0,0011.50,0003.68,0002.74
2021-10-30 23:29:00,,0827.0,5.00,0.00,30.2,29.3,00.0,39.1,32.0,14.9,0000.0,0011.66,0003.62,0002.68
2021-10-30 23:30:00,,0827.0,4.99,0.00,30.2,29.3,00.0,39.1,32.0,14.8,0000.0,0011.68,0003.57,0002.61
2021-10-30 23:31:00,,0827.1,5.00,0.00,30.2,29.4,00.0,39.1,32.1,14.9,0000.0,0011.62,0003.56,0002.54
2021-10-30 23:32:00,,0827.0,5.00,0.00,30.3,29.4,00.0,39.1,32.1,14.9,0000.0,0010.70,0003.55,0002.50
2021-10-30 23:33:00,,0827.1,5.01,0.00,30.3,29.4,00.0,39.2,32.1,14.9,0000.0,0010.46,0003.55,0002.47
2021-10-30 23:34:00,,0827.2,4.99,0.00,30.3,29.4,00.0,39.2,32.1,14.8,0000.0,0010.56,0003.53,0002.46
2021-10-30 23:35:00,,0827.3,5.00,0.00,30.3,29.4,00.0,39.2,32.2,14.9,0000.0,0011.65,0003.49,0002.45
2021-10-30 23:36:00,,0827.1,5.00,0.00,30.4,29.5,00.0,39.2,32.2,14.9,0000.0,0012.17,0003.53,0002.41
2021-10-30 23:37:00,,0827.1,5.01,0.00,30.4,29.5,00.0,39.3,32.2,15.0,0000.0,0012.31,0003.56,0002.36
2021-10-30 23:38:00,,0827.1,5.00,0.00,30.4,29.5,00.0,39.3,32.2,15.0,0000.0,0013.04,0003.59,0002.30
2021-10-30 23:39:00,,0827.2,5.00,0.00,30.4,29.6,00.0,39.3,32.2,15.0,0000.0,0012.92,0003.59,0002.24
2021-10-30 23:40:00,,0827.2,4.99,0.00,30.4,29.6,00.0,39.3,32.3,15.0,0000.0,0012.97,0003.61,0002.19
2021-10-30 23:41:00,,0827.2,4.99,0.00,30.5,29.6,00.0,39.3,32.3,15.0,0000.0,0012.89,0003.61,0002.15
2021-10-30 23:42:00,,0827.2,5.00,0.00,30.4,27.9,00.0,39.3,31.9,15.1,0000.0,0012.79,0003.58,0002.10
2021-10-30 23:43:00,,0827.2,5.01,0.00,30.3,26.3,00.0,39.3,31.6,15.2,0000.0,0013.12,0003.54,0002.03
2021-10-30 23:44:00,,0827.2,4.99,0.00,30.2,26.4,00.0,39.3,31.5,15.3,0000.0,0014.40,0003.50,0001.95
2021-10-30 23:45:00,,0827.2,5.01,0.00,30.0,26.8,00.0,39.2,31.5,15.4,0000.0,0016.07,0003.45,0001.88
2021-10-30 23:46:00,,0827.2,5.01,0.00,30.0,27.2,00.0,39.1,31.5,15.5,0000.0,0015.07,0003.39,0001.80
2021-10-30 23:47:00,,0827.2,4.99,0.00,30.0,27.6,00.0,39.1,31.6,15.5,0000.0,0014.59,0003.33,0001.73
2021-10-30 23:48:00,,0827.2,5.01,0.00,30.0,27.9,00.0,39.1,31.6,15.6,0000.0,0014.96,0003.25,0001.66
2021-10-30 23:49:00,,0827.3,5.01,0.00,30.0,28.2,00.0,39.1,31.7,15.6,0000.0,0014.38,0003.13,0001.60
2021-10-30 23:50:00,,0827.4,5.00,0.00,30.0,28.4,00.0,39.1,31.7,15.6,0000.0,0015.22,0002.99,0001.55
2021-10-30 23:51:00,,0827.4,4.99,0.00,30.0,28.6,00.0,39.1,31.7,15.6,0000.0,0015.11,0002.89,0001.50
2021-10-30 23:52:00,,0827.4,5.00,0.00,30.0,28.7,00.0,39.0,31.8,15.6,0000.0,0015.78,0002.82,0001.45
2021-10-30 23:53:00,,0827.4,5.00,0.00,30.1,28.8,00.0,39.1,31.9,15.5,0000.0,0015.85,0002.70,0001.39
2021-10-30 23:54:00,,0827.4,4.99,0.00,30.1,28.9,00.0,39.1,31.9,15.5,0000.0,0015.73,0002.62,0001.35
2021-10-30 23:55:00,,0827.4,4.98,0.00,30.1,29.0,00.0,39.1,31.9,15.5,0000.0,0015.17,0002.68,0001.32
2021-10-30 23:56:00,,0827.4,5.01,0.00,30.1,29.1,00.0,39.1,31.9,15.5,0000.0,0014.17,0002.71,0001.31
2021-10-30 23:57:00,,0827.5,5.01,0.00,30.1,29.1,00.0,39.1,32.0,15.5,0000.0,0015.48,0002.75,0001.29
2021-10-30 23:58:00,,0827.5,5.00,0.00,30.2,29.2,00.0,39.1,32.0,15.5,0000.0,0015.58,0002.74,0001.28
2021-10-30 23:59:00,,0827.5,4.99,0.00,30.2,29.2,00.0,39.1,32.0,15.4,0000.0,0015.35,0002.78,0001.26
